User: anonymous   Login
Location: Corte Bragagnani
(45.3000°N, 11.1000°E)
Time: 11:30:05
(UTC+00:00)
Language:

CZ-2C R/B - Orbit

View from above orbital plane
View from above orbital plane
View from above satellite
View from above satellite

Ground track
Ground track

The orbit data is extracted from the following two-line orbital elements,

1 31114U 07010B   20190.87674008 -.00000043 +00000-0 -16438-5 0  9996
2 31114 098.2596 042.3127 0059120 203.7700 156.0745 14.19324452686043
Epoch (UTC): 08 July 2020 21:02:30
Eccentricity: 0.0059120
inclination: 98.2596°
perigee height: 785 km
apogee height: 870 km
right ascension of ascending node: 42.3127°
argument of perigee: 203.7700°
revolutions per day: 14.19324452
mean anomaly at epoch: 156.0745°
orbit number at epoch: 68604

The dashed part of the orbit path shows where the satellite is in the earth's shadow,  

DLR